Temp
16 16 16 15 15 15 15 15 14 14 14 14 14 14 13 13 13 13 13 13 13 14 14 14 14 14 14 14 14 14 15 15 15 15 14 14 14 14 14 14 14 14 14 14 14 14 14 14 14 13 13 13 14 14 14 14 14 14 14 14 13 13 13 13 13 13 13 13 12
15 15 15 15 15 15 15 14 14 14 14 14 14 14 14 14 13 13 13 13 13 14 14 14 14 14 14 14 14 14 14 14 14 14 14 14 14 14 14 14 14 14 14 14 14 14 14 14 14 13 13 13 13 14 14 14 14 14 14 14 13 13 13 13 13 13 13 12 12
15 15 15 15 15 15 15 14 14 14 14 14 14 14 14 14 14 14 14 14 14 14 14 14 14 14 14 14 14 14 14 14 14 14 14 14 14 13 13 13 13 13 13 13 14 14 14 14 14 13 13 12 12 13 14 14 14 14 14 13 13 13 13 13 13 12 12 12 12
15 15 15 15 15 15 15 14 14 14 14 14 14 14 14 14 14 14 14 14 14 14 14 14 14 14 14 14 14 14 14 14 14 14 14 14 14 13 13 13 13 13 13 13 13 13 14 14 14 13 13 12 12 13 13 14 14 14 14 13 13 13 13 13 13 12 12 12 11
15 15 15 15 15 15 15 15 15 15 14 14 14 14 14 14 14 14 14 14 14 14 14 14 14 14 14 14 14 14 14 14 14 14 14 13 13 13 13 13 13 13 13 13 13 13 13 13 13 13 13 12 12 13 13 14 14 14 13 13 13 13 12 12 12 12 12 12 11
15 15 15 15 15 15 15 15 15 15 15 14 14 14 14 14 14 14 14 14 14 14 14 14 14 14 14 14 14 14 14 14 14 13 13 13 13 13 13 13 13 13 13 13 13 13 13 13 13 12 12 12 12 12 13 13 13 13 13 13 13 12 12 12 12 12 12 11 11
15 15 15 15 15 15 15 15 15 15 15 14 14 14 14 14 14 14 14 14 14 14 14 14 14 14 14 14 14 14 14 14 14 13 13 13 13 13 13 13 13 12 12 12 12 12 12 12 12 12 12 12 12 12 12 12 13 13 13 13 13 12 12 12 12 12 11 11 11
15 15 15 15 15 15 15 15 15 15 14 14 14 14 14 14 14 14 14 14 14 14 14 14 14 14 14 14 14 14 14 14 14 13 13 13 13 13 12 12 12 12 12 12 12 12 12 12 12 11 11 11 11 11 12 12 12 12 12 12 12 12 12 11 11 11 11 11 11
15 15 15 15 15 15 15 15 15 15 14 14 14 14 14 14 14 14 14 14 14 14 14 14 14 14 14 14 14 14 14 14 14 13 13 13 13 12 12 12 12 12 12 12 12 12 11 11 11 11 11 11 11 11 11 11 11 11 11 11 11 11 11 11 11 11 11 11 10
15 15 15 15 15 15 15 15 15 15 15 14 14 14 14 14 14 14 14 14 14 14 14 14 14 14 14 14 14 14 14 14 13 13 13 13 13 12 12 12 12 12 12 12 12 11 11 11 11 11 11 11 10 10 10 10 10 10 10 10 10 10 10 11 11 11 11 11 11
15 15 15 15 15 15 15 15 15 15 14 14 14 14 14 14 14 14 14 14 14 14 14 14 14 14 14 14 14 13 13 13 13 13 13 13 12 12 12 12 12 12 12 11 11 11 11 11 10 10 10 10 10 10 9 9 9 9 9 10 10 10 10 10 10 10 11 11 11
15 15 15 15 15 15 15 15 15 14 14 14 14 14 14 14 14 14 14 14 14 14 14 14 14 14 14 13 13 13 13 13 13 13 13 12 12 12 12 12 12 11 11 11 11 11 10 10 10 10 10 10 9 9 9 9 9 9 9 9 9 9 9 9 10 10 10 10 10
15 15 15 15 15 15 15 15 14 14 14 14 14 14 14 14 14 14 14 14 14 14 14 14 14 13 13 13 13 13 13 13 13 13 12 12 12 12 12 11 11 11 11 11 10 10 10 10 10 9 9 9 9 9 8 8 8 8 8 8 8 8 8 9 9 10 10 10 10
15 15 15 15 15 15 15 14 14 14 14 14 14 14 14 14 14 14 14 14 14 14 14 14 13 13 13 13 13 13 13 13 13 12 12 12 12 12 11 11 11 11 10 10 10 10 10 9 9 9 9 9 9 8 8 8 8 8 8 7 7 8 8 8 9 9 9 9 9
14 14 14 14 14 14 14 14 14 14 14 14 14 14 14 14 14 14 14 14 14 14 14 13 13 13 13 13 13 13 13 13 12 12 12 12 12 11 11 11 11 10 10 10 10 9 9 9 9 9 9 9 8 8 8 8 8 7 7 7 7 7 7 7 7 8 9 9 9
14 14 14 14 14 14 14 14 14 14 14 14 14 14 14 14 14 14 14 14 14 14 13 13 13 13 13 13 13 12 12 12 12 12 12 12 11 11 11 11 11 10 10 10 10 9 9 9 9 9 8 8 8 8 8 7 7 7 7 7 6 6 6 6 7 7 8 9 9
14 14 14 14 14 14 14 14 14 14 14 14 14 14 14 14 14 14 14 14 14 13 13 13 13 13 13 13 12 12 12 12 12 12 11 11 11 11 11 11 10 10 10 10 10 9 9 9 9 8 8 8 8 7 7 7 7 7 6 6 6 6 6 6 6 6 7 8 9
14 14 14 14 14 14 14 14 14 14 14 14 14 14 14 14 14 14 14 13 13 13 13 13 13 13 12 12 12 12 12 12 11 11 11 11 11 11 11 10 10 10 10 10 9 9 9 9 8 8 8 8 7 7 7 7 7 6 6 6 6 6 6 6 6 6 7 8 9
14 14 14 14 14 14 14 14 14 14 14 14 14 14 14 13 13 13 13 13 13 13 13 13 13 12 12 12 12 12 12 11 11 11 11 11 11 11 10 10 10 10 9 9 9 9 9 8 8 8 8 7 7 7 7 7 7 7 6 6 6 6 6 6 6 7 8 8 8
14 14 14 14 14 14 13 13 13 13 13 13 13 13 13 13 13 13 13 13 13 13 13 12 12 12 12 12 11 11 11 11 11 11 11 11 11 10 10 10 10 9 9 9 9 9 8 8 8 8 8 7 7 7 7 7 7 7 6 6 6 6 6 6 7 7 8 8 8
14 14 14 14 14 13 13 13 13 13 13 13 13 13 13 13 13 13 13 13 13 12 12 12 12 12 11 11 11 11 11 11 11 11 11 10 10 10 10 10 9 9 9 9 9 9 9 8 8 8 7 7 7 7 7 7 7 7 6 6 6 6 6 7 7 7 8 8 8
14 14 14 14 14 14 14 14 13 13 13 13 13 13 13 13 13 12 12 12 12 12 12 12 11 11 11 11 11 11 11 11 10 10 10 10 10 10 10 9 9 9 9 9 9 9 9 8 8 8 8 7 7 7 7 7 7 6 6 6 6 6 7 7 7 7 7 8 8
14 14 14 14 14 13 13 13 13 13 13 13 13 12 12 12 12 12 12 12 11 11 11 11 11 11 11 11 11 10 10 10 10 10 10 10 10 10 9 9 9 9 9 9 9 9 8 8 8 8 8 7 7 7 7 7 6 6 6 6 6 7 7 7 7 7 7 7 7
13 13 13 13 13 13 13 13 13 13 12 12 12 12 12 12 12 11 11 11 11 11 11 11 11 11 10 10 10 10 10 10 10 10 10 9 9 9 9 9 9 9 9 9 9 9 8 8 8 8 8 7 7 7 7 7 6 6 6 6 6 7 7 7 7 7 7 7 7
13 13 13 13 13 12 12 12 12 12 12 12 12 11 11 11 11 11 11 11 11 11 11 10 10 10 10 10 10 10 10 10 9 9 9 9 9 9 9 9 9 9 9 9 8 8 8 8 8 8 7 7 7 7 7 6 6 6 6 6 6 6 6 7 7 7 7 7 7
12 12 12 12 12 12 12 12 12 11 11 11 11 11 11 11 11 11 11 10 10 10 10 10 10 10 10 10 9 9 9 9 9 9 9 9 9 9 9 9 9 9 8 8 8 8 8 8 8 7 7 7 7 7 6 6 6 6 6 6 6 6 6 6 6 7 7 7 6
12 12 12 12 12 11 11 11 11 11 11 11 11 11 10 10 10 10 10 10 10 10 9 9 9 9 9 9 9 9 9 9 9 9 9 8 8 8 8 8 8 8 8 8 8 8 8 7 7 7 7 7 7 6 6 6 6 6 6 6 6 6 6 6 6 6 6 6 6
12 11 11 11 11 11 11 11 11 10 10 10 10 10 10 10 9 9 9 9 9 9 9 9 9 9 9 9 9 8 8 8 8 8 8 8 8 8 8 8 8 8 8 8 8 7 7 7 7 6 6 6 6 6 6 6 6 5 5 5 5 6 6 6 6 6 6 6 6
11 11 11 11 11 10 10 10 10 10 10 9 9 9 9 9 9 9 9 9 8 8 8 8 8 8 8 8 8 8 8 8 8 8 8 8 8 8 8 8 8 8 7 7 7 7 7 7 6 6 6 6 6 6 6 5 5 5 5 5 5 5 5 5 6 6 6 6 6
11 10 10 10 10 10 10 9 9 9 9 9 9 9 9 8 8 8 8 8 8 8 8 8 8 8 8 8 8 8 8 7 7 7 7 7 7 7 7 7 7 7 7 7 7 7 6 6 6 5 5 5 5 5 5 5 5 5 5 5 5 5 5 5 5 5 6 6 6
10 10 10 10 9 9 9 9 9 9 8 8 8 8 8 8 8 8 8 8 8 8 7 7 7 7 7 7 7 7 7 7 7 7 7 7 7 7 7 7 7 7 6 6 6 6 6 6 5 5 5 5 5 5 5 5 5 5 5 5 5 5 5 5 5 5 5 6 6
10 9 9 9 9 9 9 8 8 8 8 8 8 8 8 8 8 8 7 7 7 7 7 7 7 7 7 7 7 7 7 7 7 7 7 7 6 6 6 6 6 6 6 6 6 6 6 5 5 5 5 5 5 5 5 5 5 5 5 5 5 5 5 5 5 5 5 5 5
9 9 9 9 9 9 8 8 8 8 8 8 8 8 8 7 7 7 7 7 7 7 7 7 7 7 7 7 7 6 6 6 6 6 6 6 6 6 6 6 6 6 6 6 5 5 5 5 5 5 5 5 5 5 5 4 4 4 4 5 5 5 5 5 5 5 5 5 5
9 9 9 9 8 8 8 8 8 8 8 8 8 7 7 7 7 7 7 7 7 7 7 7 7 7 6 6 6 6 6 6 6 6 6 6 6 6 6 5 5 5 5 5 5 5 5 4 4 5 5 5 5 4 4 4 4 4 4 4 5 5 5 5 5 5 5 4 4
9 9 9 8 8 8 8 8 8 8 8 7 7 7 7 7 7 7 7 7 7 7 7 7 7 6 6 6 6 6 6 6 6 6 5 5 5 5 5 5 5 5 5 5 5 4 4 4 4 4 4 4 4 4 4 4 4 4 4 4 4 4 4 4 4 4 4 4 3
9 9 8 8 8 8 8 8 8 8 7 7 7 7 7 7 7 7 7 7 7 7 7 6 6 6 6 6 6 6 5 5 5 5 5 5 5 5 4 4 4 4 4 4 4 4 4 4 4 4 4 4 4 4 4 4 4 4 4 4 4 4 4 4 3 3 3 3 3
8 8 8 8 8 8 8 8 8 7 7 7 7 7 7 7 7 7 7 7 7 6 6 6 6 6 6 5 5 5 5 5 5 5 5 4 4 4 4 4 4 4 4 4 4 4 4 4 4 4 4 4 4 4 4 4 4 4 4 4 4 3 3 3 3 3 3 3 3
8 8 8 8 8 8 8 8 7 7 7 7 7 7 7 7 7 7 6 6 6 6 6 6 6 6 5 5 5 5 5 5 5 5 5 4 4 4 4 4 4 4 4 4 4 4 4 4 4 4 4 4 4 4 4 4 4 4 3 3 3 3 3 3 3 3 2 2 2
8 8 8 8 8 8 7 7 7 7 7 7 7 7 7 7 6 6 6 6 6 6 6 6 6 5 5 5 5 5 5 5 5 5 4 4 4 4 4 4 4 4 4 3 3 4 4 4 3 3 3 3 3 3 3 3 3 3 3 3 3 3 2 2 2 2 2 2 2
8 8 8 8 8 7 7 7 7 7 7 7 7 7 7 6 6 6 6 6 6 6 6 6 5 5 5 5 5 5 5 4 4 4 4 4 4 4 4 4 4 3 3 3 3 3 3 3 3 3 3 3 3 3 3 3 3 3 2 2 2 2 2 2 2 1 1 1 1
8 8 8 8 7 7 7 7 7 7 7 7 7 6 6 6 6 6 6 6 6 6 6 5 5 5 5 5 5 5 4 4 4 4 4 4 3 3 3 3 3 3 3 3 3 3 3 3 3 2 2 2 2 2 2 2 2 2 2 2 2 2 1 1 1 1 1 1 0
Height
759 760 761 763 764 765 766 768 769 770 772 773 775 776 778 779 780 782 783 784 785 786 787 788 789 790 792 793 793 794 795 796 797 797 798 798 798 799 800 800 801 802 803 804 804 805 806 807 807 808 808 809 810 810 810 811 811 812 812 813 813 814 814 814 814 815 815 815 815
758 760 761 762 763 765 766 767 769 770 771 773 774 775 777 778 780 780 782 783 784 785 786 787 789 790 791 791 792 793 794 795 795 796 796 797 797 798 799 799 800 801 801 802 803 804 804 805 805 806 806 807 808 809 809 809 810 810 811 811 812 812 813 813 813 813 814 814 815
758 759 760 762 763 764 765 766 768 769 771 772 774 775 776 777 779 780 781 782 783 784 785 786 788 789 790 790 791 792 793 793 794 795 795 795 796 797 797 798 799 800 800 801 801 802 803 803 804 804 805 805 806 807 807 808 808 809 809 810 810 811 811 811 811 812 813 813 814
757 759 760 761 762 763 764 765 767 768 770 771 773 774 775 777 778 779 780 781 782 783 785 785 786 787 788 789 790 790 791 792 793 793 794 795 795 795 796 797 797 798 799 800 800 801 801 802 802 803 803 804 804 805 805 806 807 807 808 808 809 809 809 809 810 810 811 812 812
756 758 759 760 761 762 764 765 766 768 769 771 772 774 775 776 777 778 779 780 781 782 783 784 785 786 787 788 789 790 790 791 791 792 793 793 794 795 795 795 796 797 797 798 799 799 800 800 800 801 801 802 802 803 804 804 805 805 806 806 807 807 807 808 808 809 810 810 811
756 757 758 760 760 762 763 765 766 767 769 770 771 773 774 775 776 777 778 779 780 781 782 783 784 785 786 787 788 788 789 790 790 791 791 792 793 793 794 794 795 795 796 796 797 798 798 799 799 799 800 800 801 801 802 803 803 803 804 804 805 805 806 806 807 808 809 809 810
755 756 758 759 760 761 763 764 765 767 768 769 770 771 772 774 775 776 777 778 779 780 781 782 783 784 785 785 786 787 788 788 789 790 790 790 791 792 792 793 793 794 795 795 795 796 796 797 797 798 798 799 799 800 800 801 801 801 802 802 803 804 805 805 806 806 807 808 809
755 756 757 758 760 761 762 763 765 766 767 768 769 770 771 772 774 775 776 777 778 779 780 781 782 783 783 784 785 785 786 787 787 788 789 789 790 790 791 791 792 793 793 794 794 795 795 795 796 796 796 797 797 798 798 799 799 800 800 801 801 802 803 804 805 805 806 807 807
754 755 757 758 759 760 761 763 764 765 766 767 768 769 770 772 773 774 775 776 777 778 779 780 781 781 782 783 784 784 785 785 786 787 787 788 788 789 790 790 790 791 792 792 793 793 794 794 794 795 795 795 795 796 796 797 798 799 800 800 801 801 802 803 803 804 805 805 806
754 755 756 757 759 760 761 762 763 764 765 766 767 769 770 771 772 773 774 775 776 777 778 779 780 780 781 782 782 783 784 784 785 785 786 786 787 788 788 789 789 790 790 791 791 792 792 793 793 793 793 794 794 795 795 795 797 798 800 800 801 801 801 801 801 802 803 804 804
753 754 755 757 758 759 760 762 763 764 765 766 767 768 769 770 771 772 774 775 775 776 777 778 779 779 780 780 781 782 782 783 784 784 785 785 786 786 787 787 788 788 789 789 790 790 791 791 791 792 792 793 793 794 794 794 795 796 798 799 800 800 800 800 800 800 801 802 802
752 754 755 756 757 759 760 761 762 763 764 765 766 767 768 770 770 772 773 774 775 775 776 777 777 778 779 780 780 781 781 782 783 783 784 784 785 785 786 786 787 787 788 788 789 789 790 790 790 791 791 792 792 792 793 793 794 794 795 796 797 798 799 799 800 800 800 801 801
752 753 754 755 757 758 759 760 761 762 763 765 765 766 768 769 770 771 772 773 773 774 775 776 776 777 778 778 779 780 780 781 781 782 783 783 784 784 785 785 786 786 787 787 788 788 789 789 790 790 790 790 791 791 791 792 792 793 794 794 795 796 797 798 799 800 800 801 801
751 752 754 755 756 757 758 759 760 762 763 764 765 766 767 768 769 770 771 771 772 773 774 775 775 776 777 778 778 779 780 780 780 781 782 782 783 783 784 784 785 785 786 786 787 787 787 788 788 789 789 790 790 790 790 790 791 792 792 793 794 794 795 796 798 799 800 800 800
750 752 753 754 755 756 758 759 760 761 762 763 764 765 766 767 768 769 770 770 771 772 773 774 775 775 776 777 777 778 779 779 780 780 781 781 782 782 783 783 784 784 785 785 785 786 786 786 787 787 788 788 789 789 789 790 790 791 791 792 793 793 794 795 797 798 799 799 800
750 751 753 754 755 756 757 758 759 760 761 762 764 765 765 767 768 768 769 770 771 772 772 773 774 775 775 776 777 777 778 778 779 780 780 780 781 781 782 782 782 783 783 784 784 785 785 785 786 787 787 787 788 788 789 789 790 790 791 791 792 793 794 795 796 797 797 798 798
750 751 752 753 754 755 757 758 759 760 761 762 763 764 765 766 767 768 769 770 770 771 772 772 773 774 775 775 776 776 777 778 778 779 779 780 780 780 781 781 781 782 783 783 784 784 785 785 785 786 787 787 787 788 788 788 789 789 790 790 791 792 793 794 795 795 796 796 796
750 751 752 753 754 755 756 757 759 760 760 762 763 764 765 765 766 767 768 769 770 770 771 772 773 773 774 775 775 776 776 777 777 778 778 779 779 780 780 780 781 781 782 783 783 784 784 785 785 786 786 787 787 787 787 787 788 788 789 789 790 790 791 792 793 794 794 795 795
750 750 752 753 754 755 756 757 758 759 760 761 762 763 764 765 766 767 768 768 769 770 771 771 772 773 773 774 775 775 775 776 777 777 778 778 779 779 780 780 780 781 781 782 782 783 783 784 785 785 785 786 786 786 786 786 787 787 787 788 788 789 790 790 791 792 792 793 793
750 750 752 753 754 755 756 757 758 759 760 761 762 763 764 765 766 766 767 768 769 770 770 771 771 772 773 773 774 775 775 776 776 777 777 778 778 779 779 780 780 780 781 781 781 782 782 783 784 784 785 785 785 785 785 785 785 786 786 787 787 788 788 789 790 790 791 792 793
750 751 752 753 754 755 756 757 758 759 760 761 762 763 764 765 765 766 767 768 768 769 770 770 771 772 772 773 774 774 775 775 776 776 777 777 778 778 779 779 779 780 780 780 781 781 781 782 782 783 783 784 784 784 784 784 785 785 785 785 786 786 787 788 789 789 790 791 792
750 751 752 753 754 755 756 757 758 759 760 761 762 763 764 764 765 766 767 767 768 769 770 770 771 771 772 773 773 774 774 775 775 776 776 777 777 778 778 778 779 779 779 780 780 780 781 781 782 782 782 782 783 783 783 783 783 784 784 785 785 786 786 787 788 788 789 790 790
750 751 752 753 754 755 756 757 758 759 760 761 762 762 763 764 765 766 766 767 768 769 769 770 770 771 772 772 773 773 774 774 775 775 776 776 777 777 777 778 778 778 779 779 780 780 780 781 781 781 781 781 781 782 782 782 782 783 783 784 784 785 785 786 787 788 788 789 790
750 751 753 754 755 755 756 757 758 759 760 761 762 762 763 764 765 766 766 767 768 768 769 770 770 771 771 772 772 773 773 774 774 775 775 775 776 776 777 777 777 778 778 779 779 779 780 780 780 780 780 780 780 781 781 781 782 782 783 783 784 784 785 785 786 787 787 788 789
751 752 753 754 755 755 756 757 758 759 760 761 762 763 763 764 765 766 766 767 768 768 769 770 770 770 771 771 772 773 773 774 774 774 775 775 775 776 776 777 777 777 778 778 779 779 779 779 780 780 780 780 780 780 780 781 781 782 782 783 783 784 784 785 785 786 786 787 788
751 752 753 754 755 756 757 758 759 760 760 761 762 763 764 764 765 766 766 767 768 768 769 769 770 770 771 771 772 772 773 773 774 774 774 775 775 775 776 776 777 777 777 778 778 778 779 779 779 779 779 779 780 780 780 780 781 781 781 782 783 783 784 784 785 785 786 786 787
752 753 754 755 755 756 757 758 759 760 761 761 762 763 764 764 765 766 766 767 767 768 769 769 770 770 771 771 771 772 772 773 773 774 774 775 775 775 775 776 776 777 777 777 778 778 778 778 778 778 778 779 779 779 780 780 780 780 781 782 782 783 783 784 784 785 785 786 786
752 753 754 755 756 757 758 759 760 760 761 762 762 763 764 765 765 766 766 767 767 768 769 769 770 770 770 771 771 772 772 773 773 774 774 774 775 775 775 776 776 776 777 777 777 777 778 778 778 778 778 778 778 779 779 780 780 780 781 781 782 782 783 783 784 784 785 785 786
753 754 755 755 756 757 758 759 760 760 761 762 763 763 764 765 765 765 766 767 767 768 768 769 770 770 770 771 771 772 772 772 773 773 774 774 774 775 775 775 776 776 776 777 777 777 777 778 778 778 778 778 778 778 779 779 780 780 780 781 781 782 782 783 783 784 785 785 785
753 754 755 756 757 758 758 759 760 761 761 762 763 763 764 765 765 765 766 767 767 768 768 769 769 770 770 771 771 771 772 772 773 773 774 774 774 775 775 775 775 776 776 776 776 777 777 777 778 778 778 778 778 778 779 779 780 780 780 781 781 782 782 783 783 784 784 784 785
754 755 755 756 757 758 759 760 760 761 761 762 763 763 764 765 765 765 766 767 767 768 768 769 769 770 770 771 771 772 772 772 773 773 773 774 774 774 775 775 775 776 776 776 776 777 777 777 778 778 779 779 778 778 779 779 780 780 780 780 781 781 782 782 783 783 783 783 784
754 755 755 756 757 758 759 760 760 761 762 762 763 764 764 765 765 766 766 767 768 768 769 769 770 770 770 771 771 772 772 772 773 773 774 774 774 774 775 775 775 776 776 776 776 777 777 777 778 778 779 779 779 779 779 779 780 780 780 780 781 781 781 782 782 782 783 783 783
755 755 756 757 757 758 759 760 761 761 762 763 763 764 764 765 765 766 767 767 768 768 769 769 770 770 771 771 771 772 772 773 773 773 774 774 774 775 775 775 775 776 776 776 776 777 777 777 778 778 779 780 779 779 779 779 780 780 780 780 780 781 781 781 782 782 782 782 782
755 755 756 757 758 759 760 760 761 762 762 763 764 764 765 765 766 766 767 768 768 769 769 770 770 770 771 771 772 772 773 773 773 774 774 774 775 775 775 775 776 776 776 776 777 777 777 778 778 779 779 779 779 779 779 779 780 780 780 780 780 780 781 781 781 781 781 781 781
755 756 757 758 758 759 760 761 761 762 763 763 764 765 765 766 766 767 768 768 769 769 770 770 771 771 772 772 772 773 773 773 774 774 774 775 775 775 775 776 776 776 776 776 777 777 778 778 778 779 779 779 779 779 780 780 780 780 780 780 780 780 780 780 780 780 780 780 780
756 757 757 758 759 760 760 761 762 763 763 764 765 765 766 766 767 768 768 769 769 770 770 771 771 772 772 773 773 773 773 774 774 774 775 775 775 775 775 776 776 776 776 777 777 777 778 778 778 779 779 779 779 779 780 780 780 780 780 780 780 780 780 780 780 780 780 780 780
757 757 758 759 760 760 761 762 762 763 764 765 765 766 766 767 768 768 769 770 770 770 771 771 772 772 773 773 773 774 774 774 774 775 775 775 775 775 776 776 776 776 777 777 777 778 778 778 778 779 779 779 779 779 779 779 779 779 779 780 780 780 780 780 780 779 779 779 779
758 758 759 759 760 761 762 763 763 764 765 765 766 767 767 768 769 769 770 770 770 771 771 772 772 773 773 773 774 774 774 775 775 775 775 775 776 776 776 776 777 777 777 778 778 778 778 779 779 779 779 778 779 779 779 779 779 779 779 779 779 779 779 779 779 779 779 779 779
759 759 760 760 761 762 763 763 764 765 765 766 767 767 768 769 769 770 770 771 771 771 772 772 773 773 774 774 774 775 775 775 775 776 776 776 776 777 777 777 777 778 778 779 779 779 779 779 779 779 779 778 778 778 779 779 779 779 779 779 779 779 779 779 779 779 779 779 778
759 760 761 761 762 763 764 764 765 766 766 767 768 768 769 770 770 770 771 771 772 772 773 773 773 774 774 775 775 775 775 776 776 776 776 777 777 777 777 778 778 778 779 779 779 780 780 780 780 779 779 779 779 779 779 779 779 779 779 779 779 779 779 779 779 779 778 778 778
760 761 761 762 763 764 764 765 766 766 767 768 768 769 770 770 770 771 771 772 772 773 773 774 774 775 775 775 775 776 776 776 777 777 777 777 778 778 778 778 778 779 779 779 780 780 780 780 780 780 779 779 779 779 779 779 779 779 779 779 779 779 779 779 779 778 778 778 778
Wind_Speed
27 27 28 28 29 29 28 28 28 28 28 28 28 28 27 27 27 28 29 30 31 31 32 33 34 35 35 36 36 37 37 37 37 37 38 38 39 39 39 39 39 39 39 38 38 38 37 37 36 35 34 34 33 33 33 33 33 32 31 31 30 29 29 29 29 29 28 28 27
27 27 27 27 28 28 28 27 27 27 27 27 28 28 28 28 28 28 29 30 31 32 32 33 34 34 35 36 36 37 37 37 37 37 38 38 38 39 39 39 39 39 39 39 39 38 38 37 37 36 35 34 34 34 34 33 33 33 32 32 31 31 30 30 30 29 29 28 27
27 26 26 26 26 27 27 27 27 27 27 27 27 28 28 29 29 29 29 30 31 32 32 33 34 34 35 36 37 37 37 37 37 37 37 38 38 38 38 39 39 39 39 39 39 39 38 38 38 37 36 35 35 35 34 34 34 33 33 33 32 32 32 31 31 30 29 28 27
27 26 25 25 26 26 27 27 27 27 27 27 27 27 27 28 28 29 29 30 30 31 32 33 34 34 35 36 36 37 37 38 37 37 37 37 37 38 38 38 39 39 39 39 39 39 39 38 38 37 37 35 35 35 35 34 34 34 34 33 33 33 33 32 31 30 29 28 27
26 26 25 25 26 26 27 27 27 27 27 27 26 26 27 27 27 28 29 29 30 31 32 33 33 34 34 35 36 37 37 37 37 37 37 37 37 38 38 38 38 39 39 39 39 39 39 39 38 38 37 36 35 35 35 35 35 35 34 34 34 34 34 33 32 31 29 28 27
26 26 25 25 25 26 26 26 27 27 27 27 26 26 27 27 27 28 28 29 30 30 31 31 32 33 33 34 35 36 36 36 36 36 36 36 37 37 38 38 38 39 39 39 39 39 39 39 38 38 37 36 36 35 35 35 35 35 35 35 35 35 34 33 32 31 29 28 27
26 26 25 25 25 25 25 26 26 26 26 26 26 27 27 27 27 28 28 29 29 29 30 30 31 32 33 33 34 35 35 36 36 36 36 36 36 37 38 38 39 39 39 39 38 38 38 38 38 37 37 37 36 36 36 36 36 36 36 36 36 35 34 33 32 31 29 28 27
25 25 25 25 25 25 25 25 25 25 25 26 26 27 27 27 28 28 28 28 28 29 29 30 30 31 32 32 33 34 34 35 35 35 35 35 36 36 37 38 38 38 38 38 38 38 38 38 37 37 37 37 36 36 36 36 36 36 36 36 36 35 34 33 32 30 29 28 26
24 24 25 25 25 25 25 25 25 25 25 26 26 27 27 27 27 27 28 28 28 28 29 29 29 30 31 31 32 32 33 33 34 34 34 35 35 35 36 37 38 38 38 38 38 37 37 37 37 37 37 37 36 36 37 36 36 35 35 34 34 33 33 33 31 30 29 28 26
23 23 24 24 24 24 25 25 25 25 25 26 26 26 26 26 27 27 27 27 27 28 28 28 29 29 30 31 31 31 32 32 33 33 33 34 34 35 36 36 37 37 37 38 37 37 37 36 36 36 37 37 36 36 36 35 34 33 33 33 32 32 32 32 31 30 29 28 27
23 23 24 24 25 25 25 24 25 25 25 25 25 25 26 26 26 26 26 26 27 27 28 28 29 29 29 30 30 31 31 32 32 32 32 33 34 34 35 36 36 36 37 37 36 36 36 35 35 35 36 36 35 35 34 34 33 32 32 33 33 32 32 31 31 30 29 28 27
23 24 24 24 25 25 25 25 25 25 25 25 25 25 25 25 26 26 26 26 27 27 28 28 29 29 29 29 30 30 30 31 31 31 32 32 33 33 34 34 35 35 35 35 35 35 34 34 34 34 34 34 34 33 33 33 33 33 33 33 33 32 32 31 31 29 28 28 27
23 23 24 24 25 25 25 25 25 25 25 25 25 25 25 25 25 25 26 26 27 27 28 28 28 28 28 29 29 29 29 30 30 31 31 31 32 32 32 33 33 34 34 34 34 33 33 33 33 33 33 33 33 33 33 33 33 33 33 33 33 32 32 31 30 29 28 27 27
23 23 23 24 24 25 25 26 26 25 25 25 25 25 25 25 25 25 26 26 27 27 27 27 27 28 28 28 28 28 28 29 29 30 30 30 30 31 31 32 32 33 33 33 33 32 32 32 33 33 33 32 32 33 33 33 33 33 33 33 32 32 32 31 29 28 28 27 27
22 23 23 24 24 25 25 25 26 26 26 26 26 25 25 25 25 25 25 25 26 26 26 26 27 27 27 27 27 27 28 28 28 29 29 29 29 30 30 31 31 32 32 32 32 33 33 33 33 33 32 32 32 32 32 32 32 32 32 32 32 31 30 29 28 27 27 28 28
22 22 23 23 24 24 25 25 25 26 25 25 25 25 25 24 24 24 24 24 24 25 25 25 26 26 26 26 26 26 27 27 27 27 28 28 28 29 29 30 30 31 31 31 32 32 32 33 32 32 31 31 31 31 31 31 31 31 30 31 30 30 29 27 26 26 27 29 30
21 22 22 23 23 24 24 25 25 25 25 25 24 24 24 24 23 23 23 23 23 24 24 24 24 24 25 25 25 26 26 26 26 26 27 27 28 28 28 29 29 29 30 30 30 30 30 31 30 30 29 29 29 29 30 30 30 30 30 30 30 29 28 27 26 26 28 30 31
21 21 22 22 23 23 23 24 24 24 24 24 23 23 23 22 22 22 22 22 22 22 22 23 23 23 24 24 24 25 25 25 25 25 26 26 27 27 27 27 27 28 28 28 28 28 29 29 28 28 28 27 28 28 29 29 30 30 30 30 30 29 28 27 27 27 28 31 31
20 20 21 21 21 22 22 22 22 22 22 22 22 21 21 21 21 21 21 21 21 21 21 21 22 22 22 22 23 23 23 23 24 24 24 25 25 25 25 25 25 26 26 26 27 27 27 27 27 27 27 27 27 28 29 29 30 30 30 30 30 29 28 27 27 28 29 30 29
18 19 19 19 19 20 20 20 20 20 20 20 20 20 20 20 20 19 19 20 20 20 20 20 20 20 21 21 21 21 22 22 22 22 22 23 23 23 23 23 24 24 25 25 25 25 26 26 26 26 26 27 27 28 29 29 30 30 30 30 29 28 27 27 27 28 29 28 26
15 16 16 16 17 17 17 18 18 18 18 18 18 18 18 18 17 17 17 17 18 18 18 18 18 18 19 19 19 19 20 20 20 20 20 21 21 21 22 22 22 23 23 24 24 24 24 24 25 25 26 26 27 28 29 29 29 30 29 29 28 27 26 26 27 27 27 26 24
12 12 12 13 13 14 14 14 15 15 15 15 15 15 15 15 15 14 15 15 15 15 15 15 16 16 16 17 17 17 17 18 18 18 19 19 20 20 20 21 21 21 22 22 23 23 23 23 23 24 24 25 26 27 28 28 28 28 27 27 26 26 25 25 25 25 24 23 22
9 9 9 9 10 10 11 11 11 12 12 12 11 11 11 11 11 11 11 12 12 12 13 13 13 13 14 14 14 15 15 16 16 17 17 18 18 19 19 20 20 20 21 21 21 21 21 21 22 23 23 24 25 25 26 26 26 26 26 26 25 25 25 24 24 23 22 21 20
7 7 7 7 7 7 8 8 8 8 8 8 8 8 8 8 8 8 9 9 9 10 10 11 11 11 12 12 12 13 13 14 15 15 16 16 17 18 18 19 19 19 20 20 20 20 20 20 21 21 22 22 23 23 23 24 24 25 25 25 25 24 24 23 22 22 21 20 20
6 6 6 6 6 6 6 6 6 6 6 6 6 5 5 5 5 6 6 7 7 8 8 9 9 9 10 10 11 11 12 12 13 14 15 15 16 16 17 17 18 18 18 18 18 18 19 19 19 20 20 20 20 21 21 22 23 23 24 24 24 23 23 22 21 21 20 20 19
7 7 7 7 6 6 6 5 5 5 4 4 4 3 3 3 3 3 4 4 5 6 6 7 7 8 8 9 9 10 10 11 12 12 13 14 15 15 16 16 17 17 17 17 17 17 18 18 18 18 18 17 18 18 19 20 21 22 22 22 22 22 21 21 20 20 19 19 19
8 8 8 8 7 7 6 5 5 4 4 3 3 2 2 2 2 2 2 2 3 4 4 5 5 6 7 7 8 9 9 10 10 11 12 12 13 14 14 14 15 15 15 15 16 16 16 16 16 16 16 16 16 16 17 18 19 20 20 21 21 21 20 20 19 19 18 18 19
10 9 9 9 8 8 7 6 6 5 4 4 3 3 2 2 1 1 0 0 1 2 2 3 4 4 5 6 6 7 8 8 9 9 10 10 11 11 12 12 13 13 13 13 14 14 14 14 14 14 14 15 14 14 15 16 17 18 18 19 19 19 19 18 18 18 17 17 18
11 11 10 10 9 9 8 8 7 6 6 5 5 4 4 3 3 3 3 2 2 2 2 3 3 3 4 5 5 6 6 7 7 7 8 8 9 9 9 10 10 11 11 12 12 12 12 12 11 11 12 13 13 13 13 13 14 15 16 17 17 17 17 17 16 16 16 17 17
12 11 11 11 11 10 10 9 8 8 7 7 6 6 5 5 5 5 5 5 4 4 4 4 4 4 4 5 5 5 6 6 6 6 7 7 7 8 8 8 9 9 10 10 10 10 10 10 9 8 9 11 12 12 11 11 11 12 13 14 14 15 15 15 15 15 15 16 16
12 12 12 12 12 11 10 10 9 9 8 8 8 7 7 7 7 7 6 6 6 5 5 5 5 6 6 6 6 6 6 6 6 7 7 7 8 8 8 8 8 9 9 9 9 9 8 8 7 6 7 9 10 11 10 10 10 10 10 11 11 12 12 13 13 14 14 14 15
13 12 12 12 12 12 11 11 10 10 9 9 9 8 8 8 8 8 8 8 7 7 7 7 7 7 7 7 7 7 7 8 8 8 8 8 8 8 8 8 8 8 8 8 8 7 7 6 5 4 5 6 9 10 10 10 10 10 10 10 10 10 11 11 12 13 13 14 15
12 12 12 12 12 12 11 11 11 10 10 10 10 10 10 10 9 9 9 9 8 8 8 8 8 8 8 8 9 9 9 9 9 9 9 9 9 9 9 9 9 8 8 8 7 6 5 4 3 3 4 5 7 9 10 10 10 11 11 11 11 12 12 13 13 14 15 16 17
12 12 12 12 12 12 12 12 11 11 11 11 11 11 11 11 10 10 10 10 9 9 9 9 9 9 10 10 10 10 10 10 10 10 9 9 10 10 10 10 9 9 8 8 7 6 5 4 3 3 3 4 5 7 9 10 11 11 12 13 13 14 14 15 16 16 17 18 18
12 12 13 13 13 13 13 12 12 12 12 12 12 12 12 11 11 11 11 11 10 10 10 10 10 10 10 10 10 10 10 10 10 10 10 10 10 11 11 10 9 9 8 8 7 6 5 4 4 3 3 4 5 6 7 9 10 11 12 13 14 15 15 16 16 17 17 17 17
12 13 14 14 14 13 13 13 13 13 13 13 13 13 12 12 12 12 11 11 11 11 11 11 11 11 11 10 10 10 10 10 10 10 10 10 10 10 11 10 9 9 8 8 8 7 6 5 5 5 5 4 5 6 7 8 9 10 11 12 13 13 13 14 14 14 14 14 13
13 13 14 14 14 14 13 13 13 13 13 13 13 13 12 12 12 12 12 12 11 11 11 12 11 11 10 10 10 9 9 9 9 9 9 9 9 10 10 10 9 9 9 9 9 8 7 7 6 6 6 5 5 6 6 7 8 8 9 9 9 9 10 10 10 10 10 10 10
13 13 14 14 14 14 13 13 13 13 13 13 13 12 12 12 12 12 12 12 12 11 11 11 11 10 10 9 9 9 9 9 10 10 10 9 9 9 10 10 10 10 11 11 10 10 9 9 8 8 6 6 6 6 6 6 6 7 7 7 8 8 8 9 9 9 9 9 10
13 13 13 14 14 14 14 13 13 13 13 13 12 12 12 12 12 12 11 11 11 11 11 10 10 9 9 9 8 9 9 9 10 10 10 10 9 9 9 9 10 10 11 12 12 11 11 11 10 9 8 7 7 7 7 7 7 8 8 9 9 9 10 10 10 11 11 11 11
13 13 13 14 14 14 14 14 13 13 13 13 12 12 12 12 12 11 11 11 10 10 10 10 10 9 9 8 8 8 9 9 9 10 9 9 9 8 8 8 9 10 11 12 12 12 12 12 12 10 9 9 9 9 8 8 9 9 10 11 11 11 12 12 12 12 12 12 12
14 14 14 14 14 14 14 14 14 14 13 13 13 12 12 12 11 11 11 10 10 10 10 10 9 9 8 8 8 8 9 9 10 10 9 9 8 8 8 8 9 9 10 11 11 12 12 12 12 12 11 11 10 10 10 10 10 11 12 13 13 13 13 13 13 13 13 13 13
Wind_Direction
204 204 204 205 206 206 206 207 207 207 207 205 204 204 205 206 207 210 212 213 215 217 219 221 223 224 225 226 227 228 230 231 231 232 233 234 234 234 234 234 235 235 236 236 237 236 236 236 236 236 237 238 240 241 242 242 242 241 241 240 240 240 241 242 241 241 239 238 238
205 205 205 205 206 207 207 207 207 207 208 209 209 209 209 210 211 213 215 216 218 220 222 223 224 225 226 228 229 231 231 232 233 234 234 234 235 235 235 235 235 236 236 237 237 237 237 237 236 236 237 238 239 240 241 242 242 242 241 241 241 242 242 243 243 242 241 240 240
205 205 205 205 206 206 206 206 207 208 210 211 213 213 214 214 215 216 218 220 222 223 224 225 226 227 228 230 231 233 234 234 235 236 236 236 236 236 236 236 236 236 237 237 238 238 238 238 237 237 237 238 240 240 241 242 243 242 242 242 243 243 243 243 243 243 242 241 241
206 205 205 205 206 207 208 208 209 211 212 214 215 216 217 217 219 220 222 223 224 225 226 227 228 230 231 232 233 234 236 237 237 237 238 238 237 237 236 236 236 236 237 237 238 239 239 240 239 238 238 239 241 241 242 243 243 243 243 243 243 243 243 244 244 243 242 242 241
207 206 206 207 208 210 211 212 213 213 215 216 216 216 217 218 220 221 223 224 226 227 229 230 231 232 233 234 235 236 238 239 239 239 239 239 239 238 238 237 236 236 237 238 238 239 240 240 239 239 239 240 241 242 243 244 244 243 243 244 244 244 244 244 244 243 243 242 241
207 207 208 208 210 211 213 215 216 217 217 218 217 217 217 219 220 221 223 226 228 231 232 233 233 234 235 236 237 238 239 240 241 241 241 241 240 240 238 238 237 237 237 238 238 239 239 240 239 239 239 240 241 243 244 244 244 243 243 243 244 244 244 244 244 243 243 242 241
208 208 208 209 210 212 214 216 217 218 219 219 219 219 220 221 222 223 226 229 231 233 233 234 234 235 236 237 238 239 240 241 242 242 243 242 241 240 239 239 238 238 238 238 238 239 239 239 239 239 239 240 241 242 243 243 243 243 242 243 244 244 244 244 244 243 242 241 241
209 209 209 210 211 213 215 216 217 217 217 219 220 222 223 224 225 227 229 231 232 233 234 235 236 237 238 238 239 240 241 242 243 243 244 243 242 241 240 239 239 238 239 239 239 239 239 240 239 239 239 240 241 242 243 243 243 242 242 243 244 244 244 244 243 243 242 242 241
209 210 210 211 212 214 216 218 218 218 218 220 223 225 226 227 228 229 230 231 233 235 236 237 238 239 239 240 241 242 243 244 244 244 244 244 242 241 240 239 239 239 239 240 240 240 240 240 240 240 241 241 241 242 243 244 244 245 245 245 245 245 245 244 243 242 242 242 242
209 210 211 212 213 215 217 219 220 220 221 223 225 227 228 229 230 231 232 234 236 236 237 238 239 240 240 241 242 243 244 245 245 245 245 244 243 242 241 240 239 239 239 240 240 240 240 240 240 241 242 242 242 243 243 244 244 245 247 249 249 249 247 245 243 242 241 241 241
211 212 212 213 214 216 218 219 220 221 223 224 226 227 229 230 231 233 235 237 236 237 239 241 241 241 241 242 243 244 245 246 246 246 245 244 244 243 242 241 241 240 240 240 240 240 240 240 241 241 242 243 243 243 243 243 243 244 246 249 250 250 249 248 245 243 242 241 241
213 214 215 215 216 217 218 218 220 221 222 224 226 228 229 231 233 235 236 236 237 239 241 243 243 243 243 244 245 245 246 246 246 246 246 245 245 244 243 243 242 242 241 241 241 241 240 240 241 242 242 243 243 242 243 243 243 244 245 246 248 249 249 249 248 246 245 244 243
216 216 216 216 217 217 218 219 220 221 223 224 227 229 231 233 235 236 236 236 238 240 242 243 244 244 245 245 246 246 246 247 247 247 247 247 246 245 244 243 243 242 242 242 242 242 242 242 242 243 243 243 244 244 244 244 244 244 244 245 245 246 248 249 248 248 247 247 246
216 216 216 216 217 217 218 219 221 222 223 225 227 230 231 233 235 236 237 238 240 241 242 243 245 246 247 247 248 248 248 249 248 248 248 248 247 246 246 245 245 244 243 243 243 243 244 244 245 245 245 245 246 246 246 246 245 245 245 245 245 246 247 248 248 249 249 248 248
214 214 215 216 216 217 219 220 222 223 224 226 228 230 232 233 235 236 237 239 241 243 244 245 246 248 249 249 250 250 250 250 249 249 248 248 248 248 248 247 247 247 246 246 246 246 247 247 248 248 248 248 248 248 248 248 248 247 246 246 246 247 247 248 249 250 252 251 250
210 212 213 214 216 217 219 221 222 224 225 227 229 230 232 233 235 237 238 240 242 244 245 246 248 250 251 251 251 250 250 249 249 249 249 249 250 250 250 250 250 250 250 249 249 249 250 250 250 250 250 250 250 250 250 250 250 249 248 248 247 248 248 250 251 253 255 254 251
208 210 212 214 215 217 219 221 222 224 225 227 229 231 232 234 236 238 239 241 243 244 246 248 250 250 250 250 251 250 249 249 250 251 251 252 252 252 252 253 253 254 254 253 252 252 252 252 252 252 252 251 251 251 252 252 252 251 250 250 250 250 252 253 255 255 255 254 251
207 210 212 213 215 218 219 221 222 224 226 227 229 231 233 235 236 238 240 243 244 246 247 250 250 250 250 250 251 251 251 251 252 254 255 256 256 256 256 256 257 257 257 256 255 255 255 255 254 254 253 253 253 253 253 254 254 254 254 254 255 255 256 257 257 256 254 251 250
207 209 211 213 215 218 220 221 223 225 227 228 230 232 234 236 237 239 241 243 246 248 249 250 250 250 251 251 253 254 254 255 256 258 260 261 261 260 260 260 260 260 260 259 259 258 258 258 257 256 255 254 254 255 256 257 258 259 260 260 260 261 260 259 257 254 252 250 249
207 209 211 213 216 218 220 222 224 226 228 230 232 233 235 237 239 240 242 244 247 249 250 250 250 251 253 255 256 257 259 260 261 262 263 264 263 263 262 262 261 261 262 263 263 262 262 261 260 259 258 257 257 258 260 261 263 264 265 265 264 263 260 257 254 252 251 250 250
205 208 211 214 216 219 221 224 226 228 230 232 233 235 237 239 240 242 244 247 249 250 251 252 253 255 257 259 260 261 263 264 264 264 265 265 265 264 264 264 263 264 265 266 266 266 266 265 264 263 262 263 263 264 265 266 266 267 267 265 263 261 258 254 252 251 251 252 251
202 205 209 212 215 218 221 223 225 228 230 232 234 236 238 240 242 244 246 248 250 251 253 255 258 260 261 263 265 266 266 267 266 266 266 266 265 265 266 265 266 267 268 268 269 269 269 269 269 269 269 269 269 269 269 268 267 266 265 263 261 259 257 255 254 253 253 252 251
194 197 200 205 208 212 215 218 221 224 227 230 233 235 237 240 242 245 247 249 251 253 256 259 262 263 265 267 268 269 268 268 268 268 268 266 266 266 267 268 268 269 270 272 272 273 273 274 275 276 275 274 273 272 270 268 266 264 263 261 260 259 259 258 257 256 254 253 251
177 178 181 186 191 196 202 207 211 216 220 224 227 230 234 237 241 244 247 250 253 256 259 262 264 266 268 269 269 269 269 268 269 268 268 268 268 268 269 271 272 273 274 276 277 278 279 279 280 280 280 279 277 274 272 269 266 264 263 263 262 262 262 262 260 258 255 252 250
156 157 159 163 169 175 183 190 197 204 207 211 216 221 226 232 238 244 248 252 257 259 262 264 267 268 270 270 270 271 271 271 271 271 270 270 271 272 273 274 276 277 279 281 282 283 284 285 285 284 283 282 279 276 273 270 268 267 266 265 265 265 265 264 262 259 256 253 251
144 145 147 150 155 160 167 173 179 184 189 193 198 205 213 222 233 243 250 257 260 263 266 268 270 272 273 274 274 275 276 276 276 275 274 274 274 275 276 278 281 283 285 287 288 289 289 290 290 289 288 285 282 278 275 272 271 269 268 267 267 266 266 265 264 261 258 255 253
140 141 142 144 147 151 153 156 160 162 165 167 169 173 179 193 211 234 253 264 268 271 275 278 279 281 282 283 283 283 283 283 283 282 281 280 280 280 282 285 288 291 293 294 294 294 294 294 293 293 293 291 287 283 279 276 274 271 270 268 267 267 267 266 265 263 260 258 257
136 136 137 139 139 139 139 140 140 139 138 136 134 132 133 132 130 119 77 332 309 308 304 303 301 300 300 299 298 297 296 294 294 293 292 291 290 291 293 296 299 300 302 302 302 302 301 299 296 294 294 294 292 289 286 281 278 274 272 270 269 269 269 268 268 266 265 264 265
129 130 130 130 129 128 127 126 124 122 120 118 116 113 111 105 95 86 75 62 45 25 5 350 340 334 329 325 321 318 316 313 311 309 307 306 306 308 310 312 313 314 314 313 312 311 308 304 298 290 288 292 294 294 292 288 283 279 276 274 273 273 273 273 273 273 274 275 277
122 123 123 122 121 119 118 117 115 112 110 108 105 101 98 94 89 83 76 68 59 49 40 31 22 14 6 359 353 348 344 341 338 335 333 331 330 332 333 333 331 329 327 324 322 319 315 309 301 286 277 282 290 295 296 296 292 288 284 282 280 279 279 280 280 281 283 285 287
118 118 118 117 116 114 112 110 108 105 102 100 97 95 92 90 86 82 76 71 65 61 56 50 41 35 31 26 21 16 12 9 6 3 360 357 355 354 353 352 347 342 338 334 331 327 322 314 303 281 265 267 280 292 299 303 302 300 296 293 290 289 288 288 289 291 293 295 298
115 115 115 114 112 109 108 105 103 100 97 95 94 92 90 87 84 81 77 73 68 63 58 54 50 47 44 41 37 33 30 27 24 21 18 15 11 8 6 3 358 353 349 345 341 336 330 319 302 281 260 254 272 286 297 303 306 307 306 304 303 302 301 302 303 305 307 308 308
115 115 114 112 110 108 106 103 101 99 97 95 94 91 89 86 84 81 77 73 68 64 60 58 56 54 51 48 45 43 40 36 33 31 28 25 22 18 16 12 8 4 1 357 353 348 341 328 307 287 274 267 275 285 294 300 304 306 308 309 311 313 314 314 314 314 314 313 311
116 115 114 111 109 107 106 103 101 99 97 96 94 91 89 86 83 79 76 72 69 67 65 64 61 59 56 53 50 47 44 42 40 37 34 32 29 27 24 20 17 13 11 7 4 0 355 344 327 311 297 287 287 290 295 299 302 305 309 312 315 317 318 317 316 315 314 313 311
116 116 114 112 109 108 105 103 101 100 97 95 92 90 88 86 83 79 76 73 71 69 68 66 64 61 58 54 51 48 46 44 42 40 38 36 34 32 29 26 23 20 18 16 15 13 8 358 351 343 329 311 302 299 300 302 305 308 311 314 316 317 317 317 317 316 315 314 313
115 115 114 111 109 107 105 103 102 100 97 94 92 89 87 85 83 80 77 75 73 71 69 67 64 60 56 53 50 48 47 45 44 42 41 39 36 34 32 30 28 27 26 25 25 25 22 17 11 1 348 333 322 315 311 310 312 313 315 317 319 321 322 322 321 321 320 319 318
113 113 113 111 109 107 105 103 102 100 97 95 92 90 87 84 82 79 78 76 73 72 70 68 64 61 57 54 51 50 49 49 47 45 44 42 39 37 36 36 36 36 35 34 33 33 33 32 27 17 5 353 342 334 328 325 325 326 329 332 334 336 337 337 335 334 332 330 328
112 112 111 110 109 107 106 104 102 100 98 96 94 91 88 86 82 80 78 77 74 72 71 70 67 64 61 58 56 54 52 51 50 48 46 44 42 39 38 39 41 42 41 41 40 40 41 41 39 33 25 16 8 360 354 352 353 357 360 1 1 359 357 354 351 348 346 344 342
111 111 111 110 110 109 107 106 104 102 99 97 95 93 90 88 85 82 81 79 77 76 74 73 70 68 64 62 59 57 54 53 52 50 48 47 45 42 41 42 47 50 51 51 50 50 49 48 45 41 37 32 26 19 15 14 17 19 17 13 9 5 0 357 354 352 350 347 347
112 111 111 111 111 111 110 109 107 104 102 100 97 95 93 91 89 87 86 85 83 81 80 77 74 71 69 66 63 60 58 57 55 53 52 52 51 49 50 53 58 62 63 62 58 55 54 51 46 40 35 32 28 23 18 16 17 16 13 8 3 358 355 353 351 349 348 346 343
113 113 113 113 113 113 112 111 109 107 105 102 100 98 97 96 94 93 91 90 88 86 84 82 79 76 74 71 68 67 66 65 63 60 58 59 60 60 60 64 69 72 73 70 63 56 52 50 44 36 29 25 22 18 13 10 10 9 6 0 355 352 351 349 347 346 345 344 342